Regional Weather Roundup
Issued by NWS

Home | Current Version | Previous Version | Text Only | Print | Product List | Glossary On
Versions: 1 2 3 4 5 6 7 8 9 10 11 12 13 14 15 16 17 18 19 20 21 22 23 24 25 26 27
000
ASUS42 KKEY 231210
RWRKEY

FLORIDA REGIONAL WEATHER ROUNDUP FOR THE FLORIDA KEYS
NATIONAL WEATHER SERVICE KEY WEST FLORIDA
800 AM EDT THU OCT 23 2014

...SOUTH FLORIDA AND THE KEYS...

CITY           SKY/WX    TMP DP  RH WIND       PRES   REMARKS
FORT MYERS     MOCLDY    69  63  81 NE9       29.93R
SW REGIONAL AP PTCLDY    68  63  84 NE9       29.93R
NAPLES         MOCLDY    71  66  84 NE8       29.92R
MIAMI          LGT RAIN  74  72  93 E3        29.91R
WEST KENDALL   LGT RAIN  76  72  87 E5        29.91R
HOMESTEAD      CLOUDY    74  70  87 E5        29.90R
MARATHON       CLOUDY    76  50  40 E7        29.87R
BOCA CHICA NAS LGT RAIN  75  73  93 E16       29.86R
KEY WEST INTL  CLOUDY    77  75  93 E13       29.87R

...INTERNATIONAL WEATHER...

CITY           SKY/WX    TMP DP  RH WIND       PRES   REMARKS
NASSAU BAHAMAS NOT AVBL
CANCUN MEXICO  PTCLDY    73  73 100 NW5       29.78R
COZUMEL MEXICO CLOUDY    73  73 100 CALM      29.77R

ADJACENT COASTAL WATERS...

STATION/POSITION TIME  SKY/WX   TEMP    WIND        PRES    WAVE
                                AIR SEA DIR/SP/G            HT/PER
                 (UTC)          (F)     (DEG/KT/KT) (MB)    (FT/S)
PULASKI SHOAL LI 1100            79      90/ 18/ 19 1010.7R
SAND KEY         1140            78     100/ 18/ 21 1010.9R
SOMBRERO KEY     1200            78     110/ 16/ 17 1012.1R
LONG KEY         1100            77 78  120/ 13/ 16 1011.9R
MOLASSES REEF    1200            78 83  110/ 16/ 18 1011.6R
FOWEY ROCKS      1200            78 81  120/ 13/ 14 1012.5R
Buoy 42080       NOT AVBL

$$



USA.gov is the U.S. government's official web portal to all federal, state and local government web resources and services.